This demonstration page uses our WeatherBlox Daily Observations layout. Learn more.

Left ArrowRight Arrow

39.51506, -84.39828

Hourly Observations for April 7, 2020

Temp ( °F °C ) Dew Point ( °F °C ) Humidity (%) Winds ( mph kmh ) Pressure ( in mb ) Visibility ( mi km ) Precip ( " mm )
12:15 am 00:15 Mostly Cloudy 56 13.3 54 12 92 92 N N/A 30.00 1016 10 16 N/A
12:35 am 00:35 Mostly Cloudy 56 13.1 54 12 93 93 N N/A 30.00 1016 10 16 N/A
12:55 am 00:55 undefined 54 12.1 52 11.2 94 94 N N/A 29.99 1016 N/A N/A
1:15 am 01:15 Clear 53 11.8 52 11.3 97 97 N N/A 30.00 1016 10 16 N/A
1:35 am 01:35 Clear 52 11.2 51 10.8 97 97 N N/A 30.00 1016 10 16 N/A
1:55 am 01:55 Clear 51 10.8 51 10.5 98 98 N N/A 29.99 1015 10 16 N/A
2:15 am 02:15 Clear 51 10.3 50 10.1 99 99 N N/A 29.99 1016 10 16 N/A
2:35 am 02:35 Clear 50 10 49 9.7 98 98 N N/A 29.98 1015 7 11 N/A
2:55 am 02:55 Clear 50 9.9 49 9.7 99 99 N N/A 29.97 1015 10 16 N/A
3:15 am 03:15 Clear with Mist and Fog 49 9.3 49 9.2 99 99 N N/A 29.97 1015 5 8 N/A
3:35 am 03:35 Clear 49 9.3 49 9.2 99 99 N N/A 29.97 1015 10 16 N/A
3:55 am 03:55 Mostly Cloudy 49 9.7 49 9.4 98 98 N N/A 29.96 1015 10 16 N/A
4:15 am 04:15 Mostly Cloudy 49 9.3 48 9 98 98 N N/A 29.96 1015 10 16 N/A
4:35 am 04:35 Mostly Cloudy 49 9.2 48 9 99 99 N N/A 29.95 1014 7 11 N/A
4:55 am 04:55 Cloudy 49 9.5 48 9.1 97 97 N N/A 29.95 1014 10 16 N/A
5:15 am 05:15 Partly Cloudy 50 9.9 49 9.4 97 97 N N/A 29.94 1014 10 16 N/A
5:35 am 05:35 Clear with Nearby Thunderstorms 49 9.6 49 9.2 97 97 N N/A 29.94 1014 10 16 N/A
5:55 am 05:55 Clear with Mist and Fog 48 8.8 47 8.6 99 99 N N/A 29.94 1014 5 8 N/A
6:15 am 06:15 Clear with Mist and Fog 49 9.2 48 9.1 99 99 N N/A 29.94 1014 5 8 N/A
6:35 am 06:35 Clear with Nearby Thunderstorms 48 8.8 47 8.5 98 98 N N/A 29.93 1014 4 6 N/A
6:55 am 06:55 Clear with Mist and Fog 49 9.6 49 9.5 99 99 N N/A 29.93 1014 5 8 N/A
7:15 am 07:15 Sunny with Thunderstorms 48 9 48 8.9 99 99 N N/A 29.94 1014 5 8 N/A
7:35 am 07:35 Sunny with Nearby Thunderstorms 48 8.8 47 8.5 98 98 N N/A 29.94 1014 5 8 N/A
7:55 am 07:55 Mostly Cloudy with Mist and Fog 48 8.7 47 8.6 99 99 N N/A 29.94 1014 5 8 N/A
8:15 am 08:15 Mostly Cloudy with Mist and Fog 50 10 50 9.8 99 99 N N/A 29.95 1014 5 8 N/A
8:35 am 08:35 Cloudy with Mist and Fog 52 11.2 52 10.9 98 98 NNW 3 6 29.95 1014 7 11 N/A
8:55 am 08:55 Cloudy 57 13.7 54 12.2 91 91 N N/A 29.93 1014 10 16 N/A
9:15 am 09:15 Cloudy with Nearby Thunderstorms 58 14.6 54 12.3 86 86 NE 5 7 29.93 1013 10 16 N/A
9:35 am 09:35 Cloudy 60 15.4 54 12.4 82 82 NNE 3 6 29.93 1013 10 16 N/A
9:55 am 09:55 Cloudy 62 16.4 56 13.1 81 81 NE 7 11 29.91 1013 10 16 N/A
10:15 am 10:15 Mostly Cloudy 63 17.4 55 13 76 76 N N/A 29.90 1013 10 16 N/A
10:35 am 10:35 Cloudy 64 17.8 55 12.6 72 72 S 3 6 29.90 1013 10 16 N/A
10:55 am 10:55 Mostly Cloudy 65 18.2 55 12.9 71 71 S 5 7 29.90 1012 10 16 N/A
11:15 am 11:15 Mostly Cloudy 66 18.8 56 13.2 70 70 SSW 7 11 29.90 1012 10 16 N/A
11:35 am 11:35 Mostly Cloudy 67 19.3 56 13.5 69 69 S 5 7 29.89 1012 10 16 N/A
11:55 am 11:55 Sunny 69 20.6 58 14.3 67 67 S 12 19 29.87 1012 10 16 N/A
12:15 pm 12:15 Sunny 71 21.7 59 15 66 66 SSW 9 15 29.86 1011 10 16 N/A
12:35 pm 12:35 Partly Cloudy 73 23 59 15 61 61 SW 12 19 29.85 1011 10 16 N/A
12:55 pm 12:55 Partly Cloudy 74 23.2 59 15 60 60 SW 9 15 29.84 1010 10 16 N/A
1:15 pm 13:15 Cloudy 74 23.6 59 15.2 59 59 WSW 14 22 29.83 1010 10 16 N/A
1:35 pm 13:35 Mostly Cloudy 77 24.9 59 15 54 54 SW 17 28 29.82 1010 10 16 N/A
1:55 pm 13:55 Mostly Cloudy 74 23.6 59 15.2 59 59 SW 8 13 29.82 1010 10 16 N/A
2:15 pm 14:15 Partly Cloudy 77 25.2 59 15 53 53 WSW 16 26 29.80 1009 10 16 N/A
2:35 pm 14:35 Mostly Cloudy 77 25.1 59 15.1 54 54 SW 16 26 29.79 1009 10 16 N/A
2:55 pm 14:55 Partly Cloudy 77 25.2 59 14.9 53 53 SW 17 28 29.78 1009 10 16 N/A
3:15 pm 15:15 Mostly Cloudy 77 25.1 59 14.8 53 53 WSW 12 19 29.76 1008 10 16 N/A
3:35 pm 15:35 Partly Cloudy 78 25.7 59 15.2 52 52 SW 14 22 29.75 1008 10 16 N/A
3:55 pm 15:55 Mostly Cloudy 76 24.7 57 14 51 51 SW 15 24 29.74 1007 10 16 N/A
4:15 pm 16:15 Mostly Cloudy 76 24.7 58 14.5 53 53 SW 13 20 29.73 1007 10 16 N/A
4:35 pm 16:35 Mostly Cloudy 79 26 58 14.3 49 49 WSW 16 26 29.72 1006 10 16 N/A
4:55 pm 16:55 Mostly Cloudy 79 26 58 14.3 49 49 SW 18 30 29.71 1006 10 16 N/A
5:15 pm 17:15 Partly Cloudy 78 25.4 58 14.4 51 51 SW 14 22 29.71 1006 10 16 N/A
5:35 pm 17:35 Sunny 79 26.1 58 14.7 50 50 SSW 14 22 29.70 1006 10 16 N/A
5:55 pm 17:55 Partly Cloudy 79 25.9 60 15.4 52 52 SSW 15 24 29.70 1006 10 16 N/A
6:15 pm 18:15 Partly Cloudy 78 25.3 59 15.1 53 53 SSW 15 24 29.70 1006 10 16 N/A
6:35 pm 18:35 Sunny 77 25 59 14.9 54 54 SSW 15 24 29.69 1006 10 16 N/A
6:55 pm 18:55 Sunny 77 25.1 59 15.1 54 54 SSW 13 20 29.69 1006 10 16 N/A
7:15 pm 19:15 Partly Cloudy 76 24.6 59 14.8 55 55 SSW 13 20 29.69 1006 10 16 N/A
7:35 pm 19:35 Sunny 75 23.7 59 14.8 58 58 SSW 14 22 29.70 1006 10 16 N/A
7:55 pm 19:55 Sunny 73 22.8 59 14.9 61 61 SSW 10 17 29.69 1005 10 16 N/A
8:15 pm 20:15 Clear 72 22 58 14.7 63 63 SW 9 15 29.69 1005 10 16 N/A
8:35 pm 20:35 Clear 70 21.3 58 14.5 65 65 SSW 9 15 29.68 1005 10 16 N/A
8:55 pm 20:55 Clear 70 21.1 58 14.4 66 66 SW 10 17 29.69 1005 10 16 N/A
9:15 pm 21:15 Clear 69 20.5 58 14.3 68 68 SW 10 17 29.68 1005 10 16 N/A
9:35 pm 21:35 Clear 68 20 58 14.2 69 69 SW 8 13 29.69 1006 10 16 N/A
9:55 pm 21:55 Clear 67 19.6 57 14 70 70 SW 9 15 29.69 1005 10 16 N/A
10:15 pm 22:15 Clear 68 20.1 57 14 68 68 SW 7 11 29.68 1005 10 16 N/A
10:35 pm 22:35 Clear 66 19.1 57 13.9 72 72 SW 7 11 29.70 1006 10 16 N/A
10:55 pm 22:55 Clear 66 18.7 57 14 74 74 SSW 7 11 29.68 1005 10 16 N/A
11:15 pm 23:15 Clear 65 18.6 57 14.1 75 75 SSW 12 19 29.66 1004 10 16 N/A
11:35 pm 23:35 Clear 65 18.4 58 14.3 77 77 SW 10 17 29.66 1004 10 16 N/A
11:55 pm 23:55 Clear 65 18.5 58 14.6 78 78 SW 9 15 29.67 1005 10 16 N/A

Powered by AerisWeather